Location: Derby
(52.9213°N, 1.4761°W)
Time: 02:08:59
(UTC+01:00)

Vanguard 2 Rocket - Pass Details

Date: 26 May 2025
Orbit: 554 x 3293 km, 32.9° (Epoch: 12 June)

Event Time Altitude Azimuth Distance (km) Brightness Sun altitude
Rises 23:40:34 0° 241° (WSW) 7,267 11.4 -13.8°
Reaches altitude 10° 23:46:14 10° 234° (SW) 6,198 10.9 -14.1°
Maximum altitude 00:02:06 35° 179° (S) 3,858 9.5 -14.8°
Drops below altitude 10° 00:13:41 10° 121° (ESE) 4,539 10.1 -15.2°
Sets 00:17:04 0° 112° (ESE) 5,184 10.4 -15.3°
